sat.trackr.live / text

‹ back to catalog

STARLINK-5963

NORAD 56780 · 2023-078P

PAYLOAD ACTIVE UNKNOWN

§ Identity

Operator
Country
US
Launch date
2023-05-31
Launch site
AFWTR
Launch vehicle
Mass (kg)
RCS (m²)

Purposes: comms

External: N2YO · Heavens-Above · Gunter

§ Orbital elements

Epoch: 2026-05-25T02:45:54.402336Z

Period
96.11 min
Inclination
69.9981°
Eccentricity
0.0004269
Mean motion
14.98332708 rev/d
Perigee alt
569.1 km
Apogee alt
575.0 km
Semi-major
6,950.2 km
B*
4.5737e-5
RAAN
151.5572°
Arg perigee
268.0370°
Mean anomaly
92.0301°
Rev number
16,413

§ Raw data

STARLINK-59631 56780U 23078P   26145.11521299  .00000453  00000+0  45737-4 0  99952 56780  69.9981 151.5572 0004269 268.0370  92.0301 14.98332708164138

JSON: /api/v1/satellites/56780 · /tle

For live sub-satellite position, see the globe view (requires WebGL).

§ Visibility from observer

Set your observer location to see the next 7 days of passes ≥ 10°. The values pass through the URL so the page stays shareable.

No JS? Fill the form by hand. The geolocation button needs JavaScript.